Wind_Speed
48 47 46 45 45 45 45 44 44 44 44 44 44 45 45 45 45 46 47 48 48 49 50 51 51 52 52 53 53 53 53 54 54 54 55 54 54 55
48 48 47 47 47 47 47 46 46 46 46 45 46 46 46 47 47 48 48 48 49 50 51 52 53 53 54 54 54 54 55 55 56 56 56 56 56 56
48 48 49 48 47 48 48 47 46 46 47 47 47 47 47 47 47 47 48 49 50 51 52 52 53 55 56 56 56 57 57 57 57 57 57 58 58 58
47 48 48 47 48 49 49 48 47 46 47 47 48 48 48 48 48 48 50 51 51 52 53 54 55 56 56 57 58 59 59 58 58 58 58 59 59 59
45 46 46 47 47 47 48 48 48 47 47 47 48 49 49 49 49 50 51 52 53 53 54 55 56 57 57 59 59 59 59 59 59 59 60 60 60 60
43 44 44 45 46 47 48 49 49 49 49 48 49 50 50 51 51 52 52 53 54 55 56 56 57 58 59 59 59 59 60 60 60 60 61 61 60 60
43 44 44 45 45 46 48 48 49 50 50 50 50 51 52 52 53 54 54 55 55 56 57 58 58 58 59 59 60 60 60 60 61 62 61 61 60 60
43 45 45 44 45 46 47 48 49 50 51 51 52 52 53 54 55 56 56 56 56 57 58 58 59 59 59 60 61 61 61 61 61 61 61 61 60 60
43 43 44 44 45 46 48 49 50 51 52 52 53 53 54 55 57 57 57 57 58 59 59 59 60 60 61 61 62 62 62 61 61 60 59 60 60 60
41 43 44 44 45 46 48 49 50 51 51 52 53 53 55 56 56 57 58 58 59 60 60 61 61 61 61 61 62 62 61 60 60 59 59 59 59 59
40 41 42 43 45 46 48 49 49 50 51 52 53 53 54 55 56 58 58 59 59 59 60 60 60 60 60 60 61 61 60 59 58 58 58 58 57 57
41 43 44 45 46 47 47 48 48 49 51 52 53 54 54 55 56 57 58 59 59 60 60 60 60 60 59 59 60 59 58 57 57 57 57 56 55 54
41 42 43 44 46 47 47 48 49 50 51 52 53 54 54 55 56 57 58 58 58 59 58 58 58 58 59 57 57 56 55 55 55 54 53 52 51 50
41 42 43 43 44 46 47 48 49 50 51 51 52 53 54 55 56 56 57 58 58 57 57 57 57 57 56 54 53 52 52 52 51 50 49 49 48 48
41 42 42 43 44 45 46 47 48 49 50 51 51 52 53 55 55 56 57 57 56 56 55 55 54 54 53 51 50 50 49 49 48 48 47 47 46 46
40 41 41 42 42 43 44 45 46 47 49 50 50 51 52 53 54 54 54 53 52 52 52 52 51 51 49 49 48 48 48 47 46 46 46 45 45 46
39 40 40 41 42 43 44 44 45 46 47 48 49 50 51 51 51 50 50 49 49 49 49 49 48 48 48 47 47 46 46 45 45 45 45 44 44 44
39 39 40 41 42 42 43 44 44 45 47 47 48 49 49 48 47 46 46 46 46 46 46 47 47 46 45 45 45 45 44 43 43 44 44 43 42 42
39 39 40 40 41 42 43 43 44 45 46 47 47 46 46 45 44 43 43 43 43 44 44 44 44 44 44 43 42 43 43 42 43 42 42 41 41 40
38 39 40 41 42 42 42 43 44 45 45 45 45 45 44 43 42 42 42 41 41 41 41 41 41 42 42 41 40 40 41 42 41 40 39 39 38 37
39 40 40 41 41 42 42 43 43 43 43 43 43 42 41 41 41 40 40 39 39 38 39 39 39 39 39 39 38 38 39 39 38 36 36 35 34 33
40 40 41 41 41 41 41 41 41 41 41 41 40 40 40 39 38 38 37 37 37 36 36 36 37 37 37 37 37 36 35 35 34 34 33 32 31 29
40 40 40 40 40 39 39 39 39 39 39 39 38 38 38 37 36 35 35 35 35 35 35 35 35 35 35 35 34 33 32 31 31 30 30 29 28 27
Wind_Direction
245 248 250 251 253 253 254 256 258 260 262 264 267 269 270 272 275 276 278 280 281 282 284 284 284 284 284 285 286 286 286 287 287 288 289 289 289 289
247 249 251 253 253 254 255 256 259 261 262 264 267 268 270 272 274 276 277 279 282 283 284 284 285 285 285 285 286 287 287 288 288 288 288 289 289 289
250 251 252 254 255 255 256 257 259 262 264 265 266 268 270 272 273 275 277 280 282 283 284 284 285 285 285 286 286 287 288 288 288 288 288 288 288 288
251 252 253 255 256 257 257 259 260 263 264 265 267 268 270 272 273 274 277 280 282 282 284 285 286 286 286 286 287 287 287 288 288 288 288 288 288 288
251 252 253 256 257 258 259 260 260 263 265 266 267 268 270 272 273 275 277 280 281 282 284 284 285 287 287 287 287 287 287 288 288 288 288 288 288 287
252 253 256 257 258 259 259 259 260 262 264 266 267 269 270 273 275 276 277 279 280 282 283 284 285 286 287 287 287 287 287 288 288 288 289 288 288 287
254 256 258 258 259 260 260 261 261 262 264 267 269 270 271 273 275 276 278 279 281 282 283 284 285 286 287 287 288 288 288 287 288 289 289 288 287 287
258 259 259 260 260 261 261 263 264 265 267 269 270 271 273 274 275 277 279 279 281 282 283 284 285 286 286 287 288 288 288 288 289 289 288 287 287 287
260 260 261 263 263 263 264 265 267 268 269 270 271 272 274 276 277 278 279 280 281 282 282 283 285 285 286 287 287 288 289 289 289 288 288 287 288 288
260 261 262 263 265 266 266 267 268 269 270 271 272 273 274 276 277 278 279 280 281 282 282 283 284 285 286 286 287 288 289 289 289 288 287 288 288 288
261 263 264 265 266 267 268 268 269 270 270 272 274 275 276 277 278 279 280 280 281 282 282 283 283 285 285 286 287 287 288 288 288 288 288 288 288 288
263 265 266 267 268 269 269 270 271 272 272 273 275 277 278 279 280 282 282 282 282 282 282 283 284 285 286 287 287 288 288 288 288 288 288 288 288 289
266 267 268 270 270 270 271 271 272 273 274 275 277 278 280 281 282 282 283 284 284 284 285 285 285 286 287 288 288 288 288 288 288 288 288 289 289 289
269 270 270 272 272 273 273 273 273 274 275 276 278 279 280 281 282 283 284 284 285 285 285 286 287 287 287 288 288 288 288 288 288 288 289 289 290 290
272 272 272 273 273 274 274 275 276 276 277 278 279 280 281 282 282 283 284 285 285 285 286 286 287 288 288 288 288 288 288 289 288 288 289 289 289 290
272 272 273 273 273 273 274 276 278 279 279 279 280 281 282 284 285 285 285 285 285 285 286 287 288 289 289 288 288 288 288 288 288 288 288 288 289 290
273 273 273 273 274 275 276 277 278 279 281 282 282 282 283 285 286 286 285 284 284 285 286 287 289 290 289 289 288 288 289 289 289 289 290 290 290 290
274 275 275 274 275 277 278 279 279 280 281 283 284 285 285 286 286 286 286 285 285 285 286 287 288 289 289 289 289 289 289 289 290 291 291 290 291 291
276 276 276 276 277 278 278 279 280 281 283 284 284 285 285 286 286 286 286 287 286 286 287 287 287 288 289 288 288 288 289 290 290 291 290 291 292 293
277 278 278 278 279 279 279 279 280 282 283 284 284 285 285 286 286 286 286 286 286 286 287 287 287 288 289 289 289 289 290 291 291 291 291 293 294 295
278 279 280 280 279 280 280 281 281 282 283 284 284 285 285 285 284 284 285 285 285 286 287 287 287 288 288 289 290 290 291 292 293 293 293 294 295 295
279 279 280 280 279 279 280 281 282 282 283 284 284 284 284 283 282 283 283 284 285 286 287 287 288 288 289 290 291 291 292 292 293 294 295 295 295 295
279 279 279 280 280 280 281 282 282 283 283 283 284 284 283 282 281 282 283 284 285 286 287 288 289 290 290 291 292 292 292 292 293 294 295 295 296 296
Height
5693 5697 5700 5703 5705 5708 5710 5712 5715 5716 5718 5719 5720 5720 5720 5720 5720 5719 5719 5718 5716 5715 5713 5711 5709 5707 5704 5702 5699 5697 5694 5691 5688 5685 5682 5679 5676 5673
5682 5686 5688 5691 5694 5697 5699 5701 5703 5704 5706 5708 5708 5708 5708 5708 5708 5707 5706 5705 5704 5702 5700 5698 5695 5693 5690 5688 5685 5683 5680 5677 5673 5670 5667 5664 5661 5657
5670 5674 5677 5679 5682 5685 5687 5689 5691 5692 5694 5695 5695 5695 5696 5696 5695 5695 5694 5692 5691 5689 5686 5684 5681 5679 5676 5674 5671 5668 5665 5661 5658 5655 5652 5648 5645 5642
5659 5662 5665 5668 5670 5672 5674 5676 5678 5679 5681 5682 5682 5682 5683 5682 5682 5681 5680 5679 5677 5675 5672 5670 5667 5664 5661 5659 5656 5653 5649 5646 5643 5639 5636 5633 5629 5625
5648 5651 5653 5656 5658 5660 5661 5663 5665 5666 5667 5668 5669 5669 5669 5669 5668 5668 5666 5665 5663 5660 5658 5655 5652 5649 5647 5644 5640 5637 5633 5630 5627 5624 5620 5616 5612 5609
5636 5639 5641 5643 5646 5647 5649 5650 5652 5653 5654 5655 5656 5656 5656 5655 5654 5654 5653 5651 5649 5646 5643 5641 5638 5635 5632 5629 5625 5622 5618 5614 5611 5607 5603 5600 5596 5592
5625 5628 5630 5631 5633 5635 5637 5638 5639 5640 5641 5641 5642 5642 5642 5641 5640 5640 5638 5636 5634 5631 5629 5626 5623 5620 5617 5613 5609 5606 5602 5598 5594 5591 5587 5583 5579 5575
5615 5617 5618 5619 5621 5623 5624 5625 5626 5627 5627 5627 5628 5628 5627 5626 5626 5624 5623 5622 5620 5618 5615 5611 5608 5605 5601 5598 5594 5590 5586 5582 5578 5574 5570 5566 5562 5558
5603 5605 5607 5608 5609 5610 5611 5612 5612 5612 5612 5613 5613 5613 5612 5612 5610 5609 5607 5605 5603 5601 5599 5597 5592 5589 5586 5582 5578 5574 5569 5565 5561 5557 5553 5549 5545 5541
5592 5593 5595 5596 5596 5597 5598 5599 5599 5599 5598 5599 5599 5598 5597 5595 5594 5592 5590 5589 5587 5584 5582 5580 5577 5573 5570 5565 5561 5557 5552 5548 5544 5540 5536 5533 5528 5525
5580 5582 5583 5583 5584 5584 5585 5586 5586 5585 5584 5584 5583 5582 5581 5580 5578 5576 5574 5572 5571 5569 5565 5563 5560 5557 5554 5550 5545 5540 5536 5532 5528 5524 5520 5516 5512 5508
5569 5570 5571 5571 5571 5571 5571 5571 5572 5571 5571 5570 5569 5568 5566 5565 5563 5561 5559 5556 5554 5553 5549 5546 5543 5540 5538 5535 5529 5524 5520 5515 5511 5507 5503 5499 5496 5492
5557 5558 5558 5558 5558 5558 5557 5558 5558 5557 5557 5556 5555 5553 5552 5550 5548 5546 5543 5540 5538 5535 5532 5529 5526 5523 5520 5518 5514 5509 5504 5500 5496 5492 5488 5484 5481 5477
5545 5545 5545 5545 5545 5544 5544 5543 5543 5542 5542 5541 5540 5538 5537 5535 5532 5530 5527 5524 5521 5518 5515 5512 5510 5506 5504 5501 5499 5495 5490 5485 5481 5478 5474 5471 5467 5464
5533 5533 5533 5532 5532 5531 5530 5529 5529 5528 5527 5526 5525 5524 5522 5519 5517 5514 5511 5508 5505 5502 5500 5497 5494 5491 5488 5485 5483 5480 5476 5472 5468 5465 5462 5458 5455 5451
5520 5520 5520 5519 5519 5518 5517 5516 5515 5514 5513 5512 5510 5509 5506 5504 5501 5498 5496 5493 5490 5488 5485 5482 5479 5477 5474 5471 5468 5465 5462 5459 5456 5452 5449 5446 5442 5438
5508 5508 5507 5507 5506 5505 5504 5503 5502 5501 5499 5498 5496 5494 5492 5489 5486 5483 5481 5478 5476 5474 5471 5469 5466 5463 5460 5458 5455 5452 5449 5446 5442 5439 5436 5433 5430 5425
5496 5495 5495 5494 5493 5492 5491 5490 5489 5487 5486 5484 5482 5480 5478 5475 5472 5469 5467 5465 5462 5460 5458 5456 5453 5451 5448 5445 5442 5439 5436 5433 5430 5426 5423 5421 5418 5414
5483 5483 5482 5481 5480 5479 5478 5477 5475 5474 5472 5470 5468 5466 5464 5461 5459 5457 5454 5452 5450 5448 5445 5443 5440 5438 5436 5434 5431 5426 5424 5421 5418 5415 5411 5408 5406 5403
5471 5471 5470 5469 5467 5466 5465 5463 5462 5460 5458 5456 5454 5452 5450 5448 5446 5444 5442 5440 5438 5436 5433 5430 5428 5426 5424 5422 5420 5416 5411 5409 5406 5403 5400 5397 5394 5391
5459 5458 5457 5456 5454 5453 5452 5450 5448 5447 5445 5443 5441 5439 5437 5435 5434 5432 5430 5428 5426 5424 5422 5419 5417 5414 5412 5410 5408 5406 5401 5397 5394 5392 5389 5387 5385 5382
5447 5446 5444 5443 5441 5440 5439 5437 5436 5434 5432 5430 5428 5427 5425 5423 5422 5420 5419 5417 5415 5413 5411 5409 5406 5404 5401 5399 5397 5394 5392 5388 5385 5382 5379 5377 5374 5373
5435 5433 5432 5430 5429 5427 5426 5425 5423 5421 5420 5418 5417 5415 5413 5412 5410 5409 5408 5406 5404 5403 5401 5399 5396 5393 5391 5388 5386 5384 5382 5379 5377 5374 5372 5368 5366 5364